TimeAKDT,TemperatureF,Dew PointF,Humidity,Sea Level PressureIn,VisibilityMPH,Wind Direction,Wind SpeedMPH,Gust SpeedMPH,PrecipitationIn,Events,Conditions,WindDirDegrees,DateUTC
12:01 AM,55.4,53.6,94,29.92,10.0,East,9.2,18.4,N/A,,Overcast,80,2013-09-05 08:01:00
12:54 AM,55.9,54.0,93,29.94,10.0,East,8.1,26.5,0.00,,Overcast,100,2013-09-05 08:54:00
1:47 AM,55.4,53.6,94,29.95,10.0,East,9.2,16.1,N/A,,Overcast,80,2013-09-05 09:47:00
1:54 AM,55.9,53.1,90,29.96,10.0,East,8.1,17.3,N/A,,Overcast,90,2013-09-05 09:54:00
2:54 AM,55.9,53.1,90,30.00,10.0,Calm,Calm,-,N/A,,Overcast,0,2013-09-05 10:54:00
3:08 AM,55.4,53.6,94,29.99,10.0,East,5.8,-,N/A,,Overcast,100,2013-09-05 11:08:00
3:13 AM,55.4,53.6,94,29.99,10.0,East,5.8,-,N/A,,Overcast,80,2013-09-05 11:13:00
3:28 AM,55.4,51.8,88,30.00,10.0,ENE,8.1,-,N/A,,Overcast,70,2013-09-05 11:28:00
3:35 AM,55.4,51.8,88,30.00,10.0,ENE,6.9,-,N/A,,Overcast,70,2013-09-05 11:35:00
3:54 AM,55.9,52.0,87,30.01,10.0,East,5.8,-,N/A,,Overcast,90,2013-09-05 11:54:00
4:19 AM,55.4,51.8,88,30.00,10.0,Variable,6.9,-,N/A,,Overcast,0,2013-09-05 12:19:00
4:54 AM,55.9,51.1,84,30.03,10.0,ENE,10.4,-,N/A,,Overcast,70,2013-09-05 12:54:00
5:54 AM,55.9,52.0,87,30.05,10.0,Variable,3.5,-,N/A,,Overcast,0,2013-09-05 13:54:00
6:54 AM,55.9,52.0,87,30.07,10.0,ESE,4.6,-,N/A,,Overcast,110,2013-09-05 14:54:00
7:54 AM,55.9,52.0,87,30.09,10.0,ENE,10.4,18.4,N/A,,Mostly Cloudy,60,2013-09-05 15:54:00
8:15 AM,55.4,51.8,88,30.08,10.0,East,9.2,-,N/A,,Mostly Cloudy,80,2013-09-05 16:15:00
8:54 AM,57.0,51.1,81,30.10,10.0,East,6.9,-,N/A,,Scattered Clouds,90,2013-09-05 16:54:00
9:17 AM,57.2,51.8,82,30.10,10.0,ENE,6.9,-,N/A,,Mostly Cloudy,70,2013-09-05 17:17:00
9:24 AM,59.0,51.8,77,30.10,10.0,East,8.1,-,N/A,,Scattered Clouds,90,2013-09-05 17:24:00
9:54 AM,57.9,52.0,81,30.12,10.0,East,8.1,-,N/A,,Scattered Clouds,100,2013-09-05 17:54:00
10:04 AM,57.2,51.8,82,30.11,10.0,East,8.1,-,N/A,,Mostly Cloudy,80,2013-09-05 18:04:00
10:34 AM,60.8,51.8,72,30.12,10.0,East,8.1,-,N/A,,Mostly Cloudy,80,2013-09-05 18:34:00
10:45 AM,60.8,53.6,77,30.12,10.0,East,8.1,16.1,N/A,,Mostly Cloudy,90,2013-09-05 18:45:00
10:54 AM,62.1,53.1,72,30.13,10.0,ESE,10.4,-,N/A,,Overcast,120,2013-09-05 18:54:00
11:54 AM,61.0,54.0,78,30.15,10.0,SE,11.5,18.4,N/A,,Overcast,130,2013-09-05 19:54:00
12:54 PM,59.0,53.1,81,30.16,10.0,East,11.5,19.6,N/A,,Overcast,90,2013-09-05 20:54:00
1:54 PM,59.0,52.0,78,30.18,10.0,ESE,8.1,20.7,N/A,,Overcast,110,2013-09-05 21:54:00
2:44 PM,60.8,51.8,72,30.17,10.0,Variable,5.8,19.6,N/A,,Overcast,0,2013-09-05 22:44:00
2:54 PM,60.1,52.0,75,30.18,10.0,East,5.8,-,N/A,,Overcast,80,2013-09-05 22:54:00
3:54 PM,60.1,52.0,75,30.19,10.0,ENE,8.1,-,N/A,,Overcast,70,2013-09-05 23:54:00
4:21 PM,60.8,51.8,72,30.17,10.0,East,5.8,-,N/A,,Overcast,100,2013-09-06 00:21:00
4:54 PM,60.1,51.1,72,30.18,10.0,East,8.1,16.1,N/A,,Overcast,80,2013-09-06 00:54:00
5:54 PM,60.1,52.0,75,30.18,10.0,ENE,10.4,-,N/A,,Scattered Clouds,60,2013-09-06 01:54:00
6:54 PM,59.0,51.1,75,30.17,10.0,ESE,3.5,-,N/A,,Mostly Cloudy,110,2013-09-06 02:54:00
7:54 PM,55.9,52.0,87,30.18,10.0,SE,3.5,-,N/A,,Overcast,130,2013-09-06 03:54:00
8:54 PM,57.0,52.0,83,30.19,10.0,East,3.5,-,N/A,,Overcast,100,2013-09-06 04:54:00
9:19 PM,57.2,51.8,82,30.18,10.0,East,4.6,-,N/A,,Overcast,80,2013-09-06 05:19:00
9:49 PM,55.4,51.8,88,30.18,10.0,East,3.5,-,N/A,,Overcast,90,2013-09-06 05:49:00
9:54 PM,55.9,52.0,87,30.18,10.0,ESE,4.6,-,N/A,,Overcast,120,2013-09-06 05:54:00
10:19 PM,55.4,51.8,88,30.18,10.0,East,4.6,-,0.00,,Overcast,90,2013-09-06 06:19:00
10:54 PM,55.9,52.0,87,30.19,10.0,East,6.9,-,0.00,,Overcast,100,2013-09-06 06:54:00
11:54 PM,55.9,53.1,90,30.21,10.0,East,3.5,-,0.00,,Overcast,80,2013-09-06 07:54:00